Temp
10 10 10 10 10 10 11 12 15 15 16 18 20 21 22 23 25 24 22 31 32 32 32 32 33 33 32 27 28 25 26 26 28 33 33 35 34 34 33 31 32 31 29 28 26
10 10 10 10 11 11 13 14 15 17 18 19 20 21 21 21 21 20 33 33 33 32 31 31 30 30 30 28 27 26 24 27 30 33 34 34 33 34 32 32 30 29 29 28 26
10 10 11 12 12 12 13 16 17 18 19 20 20 21 21 21 19 27 33 34 32 32 31 31 31 31 33 32 30 28 30 31 32 33 34 35 35 34 31 30 29 28 27 28 26
10 11 11 12 13 14 14 16 17 18 19 19 20 22 22 20 29 32 33 34 33 32 30 31 31 32 32 33 32 31 33 33 35 36 35 34 34 33 32 31 30 29 29 28 27
10 11 12 12 13 14 15 16 17 18 19 20 20 21 21 21 22 32 32 32 32 30 30 31 31 31 32 33 34 33 33 35 34 35 34 34 32 31 30 30 30 29 29 28 27
10 11 12 13 14 15 16 17 18 19 19 20 20 19 18 23 31 32 32 32 32 30 31 30 31 33 32 33 34 35 36 36 36 34 35 33 31 32 30 30 29 29 28 28 27
10 11 12 13 14 15 17 18 19 20 20 20 20 17 17 23 31 30 29 32 33 33 30 33 33 33 32 33 35 37 37 35 35 33 33 33 32 29 30 30 29 29 28 28 27
9 10 12 13 14 15 17 19 20 20 20 20 19 16 19 29 29 31 32 32 33 34 33 34 33 32 32 34 34 35 34 33 34 33 32 34 30 29 29 28 27 28 29 29 26
10 9 12 14 14 16 18 20 20 20 19 19 18 17 21 29 29 33 33 32 33 34 35 35 35 32 32 31 29 31 31 32 33 35 34 33 32 29 29 28 27 28 27 27 27
9 9 10 14 15 15 18 20 21 20 19 17 18 19 22 28 31 33 33 33 32 31 32 33 29 29 27 28 28 30 32 33 33 35 35 33 32 29 28 29 28 28 27 25 24
9 9 9 14 14 14 16 19 17 18 18 20 21 22 27 30 32 32 33 32 32 31 29 31 29 27 29 30 31 31 32 34 35 36 35 33 33 29 29 28 27 26 27 23 20
9 9 9 13 16 14 13 12 20 23 20 21 23 23 26 27 28 30 33 30 29 28 29 29 27 30 31 32 32 32 33 34 35 36 34 33 32 29 29 29 28 27 26 24 21
9 9 9 16 16 16 15 17 24 22 20 23 23 24 25 27 28 29 29 29 30 28 29 26 29 32 32 32 32 32 31 34 35 35 33 34 30 30 30 29 29 27 28 23 23
9 9 8 15 16 14 15 22 22 21 18 22 24 27 28 28 29 32 31 30 30 28 28 28 32 32 31 31 32 30 35 36 35 32 30 30 28 28 29 29 28 27 24 23 22
9 8 8 8 10 10 22 22 22 22 22 28 27 31 28 28 30 32 33 31 29 30 28 28 31 31 31 32 33 32 34 36 35 31 29 29 28 28 26 27 29 25 24 23 23
8 8 8 11 9 20 19 22 23 20 21 28 29 28 28 28 30 31 31 32 31 30 30 30 32 31 32 34 33 35 35 30 27 26 26 28 27 26 28 31 29 26 26 24 24
10 10 8 8 13 19 20 19 19 19 26 30 29 28 27 27 29 29 30 29 28 27 27 29 30 31 33 33 33 35 28 26 28 26 27 25 27 27 30 29 30 30 28 27 26
12 13 15 15 18 17 20 18 20 24 25 27 29 27 27 27 28 29 28 28 27 28 25 27 28 31 33 32 32 32 28 26 30 26 26 26 28 30 31 30 31 30 29 29 26
14 15 15 20 19 17 17 17 19 23 29 27 27 27 28 28 29 28 27 28 29 27 27 26 28 31 33 33 32 33 30 29 27 26 26 26 28 29 31 32 31 30 30 28 28
14 14 17 21 20 18 16 17 20 25 26 26 26 28 26 27 28 27 26 28 30 28 28 29 29 31 33 34 34 32 31 31 25 29 29 26 28 27 30 30 29 31 29 29 29
14 16 21 22 20 16 17 18 23 26 27 26 26 26 29 28 27 26 28 31 30 31 27 28 28 30 33 31 30 31 31 27 26 25 25 25 26 27 31 29 30 30 30 29 29
12 18 20 22 17 15 17 21 24 25 26 25 26 27 29 31 30 28 29 30 32 31 29 27 24 26 28 30 31 30 30 27 26 29 25 25 27 28 29 28 30 29 29 30 29
11 17 21 23 18 17 19 23 24 25 25 25 25 27 29 29 29 28 31 33 32 32 29 27 25 27 27 28 31 32 31 28 25 24 27 26 27 27 26 29 29 30 28 27 27
11 19 17 18 17 20 20 21 23 26 26 26 27 29 29 28 28 29 30 33 32 32 29 29 24 26 26 29 30 32 31 30 27 25 27 26 28 28 26 28 28 30 28 28 28
12 17 16 17 19 19 19 20 21 23 26 25 27 26 26 27 26 26 27 27 32 28 29 28 28 27 28 29 33 33 32 32 30 28 30 29 28 28 27 26 27 28 29 28 27
15 16 14 15 18 18 18 20 21 23 24 25 25 27 28 28 27 26 28 26 27 27 30 26 27 30 31 30 30 32 31 32 31 31 30 29 28 29 28 26 26 28 28 28 28
15 16 15 16 19 20 19 21 22 23 23 25 26 25 29 28 28 27 26 26 27 27 28 27 25 25 28 28 29 29 31 33 33 33 33 30 30 28 27 27 27 27 26 28 29
Height
798 795 791 788 785 783 780 776 773 771 770 768 766 764 762 759 756 754 749 743 742 742 741 741 744 740 738 747 751 759 785 795 783 763 754 734 745 740 738 751 748 752 754 763 773
798 795 791 788 784 781 778 776 774 771 768 767 765 763 761 758 754 749 737 738 739 740 741 740 746 742 744 747 753 766 789 779 754 746 746 739 743 743 750 753 760 759 761 769 775
799 795 791 788 784 781 778 775 772 770 768 765 763 762 760 758 757 739 733 733 735 738 740 742 743 745 746 742 751 757 764 748 742 737 734 739 742 739 756 765 760 763 764 768 774
798 795 792 788 784 781 778 775 772 770 768 765 762 760 759 759 768 734 733 733 734 738 740 741 742 750 755 754 742 760 740 735 732 727 732 743 742 752 750 752 752 752 756 765 773
797 794 791 787 784 780 777 774 771 769 766 764 762 760 759 760 749 734 734 734 734 737 738 740 744 747 756 745 738 746 740 732 728 729 735 735 749 751 754 747 747 750 762 766 771
796 793 789 785 782 779 775 772 769 767 765 764 762 762 763 768 733 732 733 733 733 734 736 737 738 738 746 744 741 729 727 731 726 734 736 745 751 746 757 751 752 756 761 764 767
795 791 788 784 781 777 773 770 767 765 763 762 761 762 763 746 730 732 735 733 732 730 733 732 734 740 738 745 725 723 738 737 733 738 743 740 759 765 754 751 759 759 764 766 769
795 790 787 783 779 775 771 768 765 764 763 761 761 762 756 729 730 728 730 731 731 730 730 729 732 734 739 729 734 742 744 768 741 741 739 742 778 764 751 756 762 759 760 762 766
794 790 785 782 778 773 769 765 763 762 762 761 762 762 752 727 725 723 726 728 728 727 726 727 728 737 737 756 771 759 780 770 757 730 738 748 764 755 750 757 763 761 762 762 763
792 788 783 780 776 771 766 762 760 761 762 762 763 767 738 727 720 720 723 726 728 729 730 731 742 756 761 774 801 782 774 764 763 739 735 751 752 754 752 753 756 756 759 768 772
790 786 781 777 774 770 764 762 765 765 762 755 749 742 728 723 720 719 720 724 727 734 755 741 764 779 761 757 758 763 767 759 740 728 740 750 751 753 748 753 761 757 756 764 769
788 784 778 774 771 768 767 767 759 761 764 741 738 736 725 730 736 720 718 733 738 756 746 758 775 747 745 747 755 758 760 756 740 727 738 747 753 752 751 754 749 753 754 761 763
786 782 776 770 766 765 765 759 756 757 763 739 728 729 723 723 731 722 716 727 737 753 753 772 753 738 748 751 758 758 763 752 748 734 740 747 773 763 753 754 748 748 743 758 753
784 779 775 767 767 764 759 754 754 756 781 750 730 715 714 716 729 707 709 722 735 752 753 760 733 745 751 757 751 772 730 730 740 760 786 759 807 776 759 757 753 751 752 750 750
781 777 774 774 768 764 754 752 751 755 801 720 715 695 700 720 714 710 705 716 740 740 750 756 742 749 756 746 735 751 725 730 736 758 773 778 795 773 766 767 754 756 752 749 743
777 774 772 770 766 755 753 749 750 786 794 726 705 712 717 717 715 708 712 711 718 738 737 741 721 733 733 723 725 718 732 750 764 779 811 785 793 789 766 744 748 749 746 745 743
771 768 767 767 758 754 753 752 786 798 734 723 720 712 720 726 723 723 728 735 749 767 767 747 738 722 718 736 725 725 762 805 804 815 815 792 796 776 738 734 730 732 739 731 734
762 758 754 753 754 758 755 772 791 757 748 719 714 722 731 723 725 724 735 744 739 743 769 774 772 729 713 729 739 740 757 801 810 824 810 787 795 763 725 720 716 717 717 719 731
756 754 752 747 751 757 763 792 780 753 725 736 723 732 734 725 722 730 739 741 730 736 764 773 762 715 711 708 720 736 761 742 782 793 806 795 771 742 718 716 716 716 714 719 719
755 753 749 747 750 756 773 782 763 734 733 731 746 726 744 733 733 736 739 722 724 720 723 740 762 724 712 705 708 725 723 764 788 802 808 800 785 779 741 732 724 712 715 714 713
756 756 746 748 753 764 782 774 746 728 732 738 738 740 724 726 727 735 728 710 707 711 720 731 750 736 719 730 738 735 744 756 766 786 811 818 795 744 734 730 720 709 705 707 709
759 762 748 749 768 770 774 755 738 731 726 735 725 719 717 711 719 724 722 708 688 696 723 726 751 764 748 714 707 715 732 745 783 781 786 791 782 729 723 724 711 707 707 705 709
768 758 751 749 774 772 758 748 740 734 730 729 731 714 702 710 722 711 699 678 681 693 711 720 751 766 759 734 711 719 720 732 751 767 774 791 777 730 726 715 706 703 705 710 711
770 763 758 753 755 758 762 750 741 721 720 717 712 701 707 714 708 707 698 676 674 682 686 697 740 751 771 746 726 726 724 723 741 774 766 767 752 736 729 721 712 705 706 706 708
767 765 763 767 758 757 759 751 744 740 718 717 712 712 719 721 716 714 698 696 676 676 689 701 733 733 726 722 713 717 722 722 737 735 748 737 742 728 719 714 707 700 702 705 708
767 765 764 764 753 754 753 747 742 731 730 721 725 711 706 713 712 719 705 706 707 691 686 698 727 716 720 716 720 723 719 715 718 716 722 726 728 697 695 705 710 695 702 704 703
764 760 761 758 751 750 746 740 735 731 717 713 717 716 701 699 695 693 693 693 691 699 699 705 722 738 745 725 727 742 719 709 707 702 702 729 710 697 703 705 701 696 700 699 697
Wind_Speed
16 17 18 18 18 18 18 19 19 19 17 16 16 16 16 17 17 12 7 10 6 8 11 18 7 16 3 4 5 2 4 5 4 0 5 9 13 9 10 16 5 7 11 25 34
16 17 18 18 19 19 19 19 19 18 18 16 16 16 16 16 15 13 25 18 14 13 12 9 6 11 3 4 3 3 4 8 8 2 3 8 21 12 6 9 6 11 16 27 31
16 17 19 19 20 20 20 19 18 17 17 16 17 15 13 12 4 8 6 11 18 15 13 9 7 2 3 4 5 4 4 6 7 10 9 6 7 5 11 1 6 19 18 21 29
17 18 19 20 21 21 21 20 19 17 16 16 16 15 10 4 5 2 5 4 8 15 9 4 2 1 2 4 8 5 6 4 3 4 12 7 4 6 6 5 12 20 18 21 21
18 19 20 20 21 21 21 21 19 18 16 14 14 11 4 2 9 5 5 1 5 8 6 3 3 3 3 7 5 4 6 7 8 8 11 13 8 8 14 17 17 18 12 15 13
19 20 20 21 21 22 22 20 19 18 14 12 12 4 1 4 7 7 7 4 4 6 4 8 5 1 7 5 3 7 7 10 6 12 9 10 12 6 8 15 15 16 15 15 11
19 20 20 22 23 23 22 20 19 15 13 11 9 2 2 15 5 4 6 7 8 14 4 13 7 3 6 11 5 3 3 3 4 9 6 11 1 8 15 14 15 15 12 9 9
20 21 20 22 23 24 23 19 17 12 10 9 2 1 7 13 15 13 16 17 15 19 18 20 12 5 4 6 8 6 4 1 6 8 6 4 8 10 14 15 11 12 12 17 13
20 21 22 22 24 25 24 20 15 8 6 3 1 1 10 13 7 18 15 10 16 15 18 14 3 2 5 3 6 4 4 3 7 10 6 4 7 10 10 13 11 12 10 6 11
21 22 23 22 24 26 25 20 6 5 2 2 5 4 7 5 6 16 16 14 5 5 7 1 4 2 4 4 5 4 3 5 6 7 8 6 8 5 10 12 12 9 8 9 12
22 23 25 24 24 25 28 5 3 3 2 9 6 5 4 5 11 8 19 7 1 2 5 3 3 6 14 4 3 7 8 8 6 4 6 8 4 11 14 5 4 6 2 10 14
23 24 26 26 25 21 12 2 5 4 7 13 18 13 27 8 6 10 18 6 6 7 5 3 7 15 3 7 9 11 17 13 3 6 4 5 3 4 11 7 8 7 8 12 10
24 24 27 26 22 5 5 12 12 16 2 7 9 8 7 11 8 9 12 8 3 7 5 7 12 10 9 11 12 10 11 5 6 3 7 0 4 4 4 5 7 4 9 12 15
24 23 25 31 3 10 7 9 20 2 4 8 7 9 6 8 6 10 15 8 5 12 6 7 14 9 9 10 6 7 10 2 5 4 3 3 3 4 4 5 6 5 4 13 19
24 22 22 21 15 6 2 22 17 5 2 4 5 5 9 10 2 5 9 3 11 6 8 10 5 11 9 16 7 10 7 2 4 4 5 8 4 7 7 9 10 7 12 15 21
25 24 26 4 8 14 18 19 3 5 6 5 7 7 7 6 4 3 5 3 5 5 5 9 6 8 13 14 12 11 2 8 6 4 3 4 3 6 3 6 7 13 14 19 19
32 31 20 8 5 1 13 4 4 3 6 4 5 7 9 8 5 6 4 9 9 5 4 6 8 7 5 7 4 3 6 3 4 4 5 5 1 9 10 7 8 9 16 16 18
33 18 13 18 1 9 5 5 3 5 6 9 6 5 7 6 6 6 6 11 5 4 2 6 7 6 5 9 9 6 8 6 4 3 5 3 5 6 7 5 5 11 10 11 11
25 5 5 4 12 3 5 3 6 6 3 10 11 5 3 5 4 8 8 10 10 8 8 5 7 6 6 6 9 3 3 8 7 2 3 2 6 10 8 9 9 4 9 12 11
11 5 5 5 17 7 4 5 6 4 8 3 4 2 10 9 7 8 8 8 10 11 7 4 3 4 8 1 2 8 6 2 3 2 3 4 5 6 7 7 5 4 9 12 11
4 3 3 15 12 5 3 7 7 9 8 6 11 8 3 7 9 6 7 6 12 13 10 7 4 11 2 3 9 2 2 6 5 5 5 3 6 6 4 6 3 5 13 13 14
6 2 16 23 3 2 3 4 6 13 12 9 9 13 5 2 3 6 11 10 18 13 11 10 6 7 12 8 8 8 10 7 5 5 3 5 5 4 7 8 1 10 10 15 15
3 2 16 5 1 3 6 7 8 17 11 6 6 8 8 5 1 8 14 17 10 16 13 8 3 6 11 7 3 6 5 6 5 3 6 6 5 3 8 8 7 14 10 9 13
1 2 3 2 1 3 7 13 5 9 10 8 9 6 9 7 5 7 10 11 10 15 10 11 5 7 7 8 3 3 3 4 8 4 5 6 5 6 9 8 8 4 7 12 14
2 1 3 2 3 2 2 6 12 9 3 4 7 3 3 5 7 7 8 9 1 12 8 8 7 7 7 3 2 2 6 8 7 8 6 8 12 12 15 15 13 8 6 13 14
1 2 2 3 3 2 2 2 7 9 4 8 3 19 6 3 4 4 4 4 2 8 6 1 5 5 4 4 6 4 6 5 8 7 3 4 9 11 15 4 8 9 7 11 16
6 5 4 5 3 1 3 3 6 8 9 8 12 18 8 3 2 4 5 3 4 2 0 5 6 4 6 3 5 5 5 3 3 4 3 6 11 6 6 13 11 9 8 11 16
Wind_Direction
352 350 347 346 346 343 341 339 338 339 336 335 334 332 330 323 313 298 250 241 229 274 299 312 357 338 7 96 104 147 91 250 264 356 180 125 97 103 102 137 180 186 157 154 149
349 347 344 343 343 343 340 339 339 338 337 332 331 333 336 334 323 271 263 262 264 254 293 341 16 346 360 117 116 116 147 214 210 304 320 108 125 129 112 125 72 97 122 143 150
344 344 344 343 342 340 337 338 340 337 334 328 326 332 338 341 318 249 309 260 228 245 277 299 309 188 322 140 174 180 171 188 265 252 250 115 102 97 113 231 176 143 144 155 158
345 344 341 341 341 339 338 337 336 332 328 325 325 331 334 357 233 332 32 45 221 243 267 307 318 79 225 258 179 223 231 192 284 5 103 94 91 82 209 155 144 150 147 161 165
344 343 341 341 339 339 336 335 331 327 323 321 322 335 357 9 252 260 290 284 223 212 202 201 253 205 331 305 176 245 184 218 251 109 118 101 110 120 108 133 142 142 160 167 167
341 341 339 339 339 337 333 330 327 322 317 316 320 360 9 279 255 257 220 201 248 208 214 191 219 224 270 274 217 209 210 185 164 122 133 133 140 99 142 141 150 152 175 178 188
338 336 336 336 336 334 329 325 323 317 313 313 324 55 275 234 207 121 249 248 266 258 197 254 266 110 310 306 335 215 128 128 199 158 143 115 277 112 150 173 162 163 172 185 224
337 335 337 335 333 331 325 321 318 311 311 313 350 119 249 266 289 274 255 266 273 262 254 268 276 252 188 251 351 299 70 267 248 141 178 132 249 141 175 147 160 158 178 187 193
335 333 333 334 332 330 323 320 310 303 311 333 26 94 268 304 268 247 243 248 271 274 266 275 325 228 353 50 6 334 205 229 301 197 153 175 242 153 170 160 181 188 177 152 194
334 331 331 332 331 331 324 324 293 283 302 285 272 339 263 256 232 220 225 235 225 294 335 13 45 24 360 80 225 243 214 240 225 214 179 173 237 149 158 176 189 193 158 77 51
332 330 328 330 329 333 332 351 16 19 225 208 199 248 278 345 322 235 221 225 79 158 180 273 95 233 244 204 281 271 263 246 238 255 149 215 209 181 184 163 122 199 86 114 87
332 329 328 329 330 322 312 230 232 122 295 231 250 243 268 294 308 278 201 155 133 203 141 360 217 242 299 279 266 270 284 252 311 198 126 241 210 200 166 151 192 176 202 143 145
332 331 329 330 329 327 291 251 295 315 274 279 202 212 228 152 219 253 144 184 153 182 182 175 235 244 243 264 269 274 270 204 188 161 53 264 54 167 203 160 197 196 202 164 167
329 329 332 337 325 324 267 337 335 259 17 271 205 242 192 169 289 213 180 154 201 187 178 213 246 236 258 261 229 268 255 34 111 91 120 351 269 272 272 232 195 176 158 166 174
325 323 328 332 295 280 310 320 341 130 335 231 199 200 159 151 194 247 179 116 200 203 126 236 225 229 240 241 239 245 256 170 174 105 98 354 85 264 163 221 233 177 184 185 193
318 319 321 310 253 269 315 335 77 53 258 289 162 157 128 166 251 10 158 138 171 198 272 231 242 170 224 245 220 237 116 39 41 73 57 256 116 288 273 234 144 191 211 186 201
324 316 300 259 228 46 346 22 61 159 319 321 208 155 166 189 219 164 186 196 190 158 261 312 270 251 198 275 343 160 67 10 6 5 215 262 207 239 256 241 229 223 194 187 194
321 315 284 242 10 286 12 57 168 236 272 291 37 32 182 158 241 174 163 200 244 121 102 190 300 184 228 184 188 192 147 148 204 215 255 282 225 255 270 311 249 216 190 178 151
326 316 274 300 198 176 73 91 214 236 360 352 329 119 259 238 183 176 184 201 210 160 174 169 263 286 230 206 139 192 142 190 132 62 87 264 278 305 273 297 356 284 180 187 190
323 324 256 155 149 125 75 228 248 255 1 7 312 252 201 208 179 160 186 202 211 182 161 240 292 223 281 39 200 152 168 91 21 197 235 297 297 232 316 332 301 61 177 191 177
337 19 343 151 135 56 176 243 286 286 315 347 303 294 265 215 200 180 209 223 188 212 160 170 99 274 60 214 212 41 115 61 119 136 149 169 259 204 210 229 173 155 164 165 164
337 20 166 154 70 215 205 225 272 289 301 290 255 274 228 260 262 246 210 212 202 185 196 190 174 226 232 250 220 175 188 139 136 257 207 167 263 319 171 258 195 131 163 168 166
333 274 174 180 128 287 292 288 281 271 266 275 299 279 300 235 242 229 225 222 199 184 195 173 241 255 325 345 27 161 195 150 125 81 214 147 254 234 240 216 215 154 151 142 153
313 36 339 31 165 314 319 295 276 313 261 235 247 289 308 317 242 281 220 228 205 190 187 140 142 161 194 213 227 33 307 202 139 121 206 207 212 248 239 226 234 223 93 150 166
181 259 181 269 280 269 185 271 295 294 276 279 317 220 216 307 326 24 7 350 65 166 137 134 179 179 234 195 335 181 245 264 180 208 166 223 178 220 213 213 208 188 156 166 171
60 71 359 273 280 251 232 248 329 338 269 309 343 322 271 156 169 288 337 43 314 316 135 65 197 137 275 57 29 305 293 258 239 227 237 186 224 211 213 211 250 176 180 181 179
330 326 129 252 277 250 220 246 287 319 283 230 300 318 229 104 275 194 228 194 207 261 351 106 125 91 230 16 26 342 270 238 266 246 215 180 226 145 166 205 222 214 192 205 190